Preview of NWS' New Version of Forecast
This preview is not operational and should not be used for support decisions.
Latest weather observations around

Bedford, Hanscom Field (KBED)

Using International System of Units (Switch to English Units)
Date/ Time (EDT) Wind (kph) Vis. (km) Weather Sky Cond. Temp (°C) Rel. Humidity Wind Chill (°C) Heat Index (°C) Pressure Precip. (cm)
Air Dwpt 6 hour Altimeter (hPa) Sea level (hPa) 1 hr 3 hr 6 hr
Max Min
May 19 21:56 SSW 21 16.09 Cloudy OVC017 19 15     76%     1012.9 1014      
May 19 20:56 SSW 18 16.09 Cloudy OVC020 19 15     76%     1013.2 1014.2      
May 19 19:56 SSW 17 16.09 Cloudy OVC022 20 14     70%     1013.6 1014.7      
May 19 18:56 SSW 24 16.09 Mostly Cloudy BKN028 22 15     66%   22 1013.6 1014.6      
May 19 17:56 SSW 30 16.09 Mostly Clear FEW200 23 15     60%   23 1013.2 1014.4      
May 19 16:56 SSW 28 16.09 Mostly Clear FEW200 24 14     54%   24 1013.6 1014.7      
May 19 15:56 SSW 26 16.09 Clear CLR 24 13     50%   24 1014.6 1015.7      
May 19 14:56 SSW 13 16.09 Clear CLR 22 13     59%   21 1015.6 1016.8      
May 19 13:56 S 13 16.09 Partly Cloudy SCT120 17 12     72%     1016.3 1017.6     1
May 19 12:56 S 9 16.09 Cloudy FEW022 BKN045 OVC110 16 12     80%     1017.6 1018.7 0    
May 19 12:34 S 13 9.66 Light Rain and Fog/Mist SCT037 BKN049 OVC075 14 12     87%     1017.6   0    
May 19 12:11 SSW 15 2.41 Rain SCT038 BKN055 OVC080 14 12     84%     1018   0    
May 19 12:03 SSW 13 8.05 Light Rain FEW038 BKN055 OVC070 15 12     81%     1018.3   0    
May 19 11:56 S 17 4.02 Light Rain BKN060 BKN075 OVC090 15 12     81%     1018.3 1019.4 0    
May 19 10:56 SW 13 4.02 Rain and Fog/Mist OVC039 17 10     63%     1019 1020 0 0  
May 19 09:56 S 15 16.09 Cloudy OVC039 18 9     56%     1018.6 1019.9      
May 19 08:56 S 17 16.09 Mostly Cloudy BKN055 BKN095 17 9     60%     1018.6 1019.9      
May 19 07:56 S 13 16.09 Mostly Cloudy SCT080 BKN250 15 8     64%     1018.6 1019.7      
May 19 06:56 S 11 16.09 Clear CLR 13 8     74%     1018.6 1019.8      
May 19 05:56 S 8 16.09 Mostly Clear FEW075 11 8     80%     1019 1020      
May 19 04:56 Calm 16.09 Cloudy OVC090 11 8     80%     1018.6 1019.8      
May 19 03:56 E 5 16.09 Mostly Cloudy BKN080 BKN100 11 7     79%     1018.3 1019.6      
May 19 02:56 Calm 16.09 Partly Cloudy SCT100 9 7     83%     1018.3 1019.5      
May 19 01:56 Calm 16.09 Cloudy OVC100 12 7     71%     1018 1019      
May 19 00:56 NE 5 16.09 Mostly Cloudy BKN110 11 7     74%     1018.6 1019.8      
May 18 23:56 Calm 16.09 Partly Cloudy SCT120 12 7     71%     1018.3 1019.6      
May 18 22:56 ENE 8 16.09 Partly Cloudy SCT110 13 6     64%     1018.3 1019.6      
May 18 21:56 ENE 8 16.09 Cloudy OVC110 13 6     64%     1017.6 1018.9      
May 18 20:56 ESE 8 16.09 Clear CLR 13 5     57%     1016.9 1018.1      
May 18 19:56 E 18 16.09 Clear CLR 16 4     47%     1016.3 1017.4      
May 18 18:56 E 24 16.09 Clear CLR 17 4     44%     1015.6 1016.6      
May 18 17:56 E 22 16.09 Clear CLR 19 5     40%     1014.9 1016      
May 18 17:26 E 22 16.09 Clear CLR 20 6     39%     1014.2        
May 18 16:56 8 16.09 Clear CLR 24 4     28%   23 1013.6 1014.6      
May 18 15:56 N 11 16.09 Clear CLR 23 5     31%   22 1013.2 1014.5      
May 18 14:56 9 16.09 Partly Cloudy SCT250 23 4     29%   22 1013.2 1014.4      
May 18 13:56 Calm 16.09 Partly Cloudy SCT250 22 4     31%   21 1013.6 1014.7      
May 18 12:56 8 16.09 Clear CLR 21 5     35%     1013.6 1014.8      
May 18 11:56 N 18 16.09 Mostly Clear FEW250 20 5     37%     1013.9 1015      
May 18 10:56 N 18 16.09 Clear CLR 18 4     40%     1013.6 1014.6      
May 18 09:56 NNW 22 16.09 Mostly Clear FEW250 17 4     43%     1013.6 1014.6      
May 18 08:56 NNW 21 16.09 Clear CLR 15 3     45%     1012.5 1013.9      
May 18 07:56 NW 24 16.09 Clear CLR 13 3     51%     1011.9 1013      
May 18 06:56 WNW 18 16.09 Mostly Clear FEW003 12 4     57%     1011.9 1013      
May 18 05:56 W 8 16.09 Clear CLR 9 5     77% 8   1010.8 1012.1      
May 18 04:56 WNW 5 16.09 Clear CLR 9 7     86% 8   1009.5 1010.8      
May 18 03:56 NW 9 16.09 Clear CLR 9 6     80% 8   1008.8 1010      
May 18 02:56 Calm 16.09 Clear CLR 10 7     83%     1008.1 1009.5      
May 18 01:56 Calm 16.09 Clear CLR 11 8     80%     1007.8 1008.9      
May 18 00:56 W 9 16.09 Clear CLR 14 9     72%     1007.5 1008.6      
May 17 23:56 W 17 16.09 Clear CLR 16 12     78%     1006.4 1007.6      
May 17 22:56 WSW 9 14.48 Clear CLR 16 13     83%     1006.1 1007.3      
May 17 21:56 SW 11 14.48 Clear CLR 16 13     83%     1005.8 1007      
May 17 20:56 SSW 11 11.27 Clear CLR 17 14     86%     1005.4 1006.7      
May 17 19:56 SSW 8 9.66 Fog/Mist BKN120 17 15     87%     1005.1 1006.4     0
May 17 18:56 S 15 12.87 Partly Cloudy SCT120 18 15     81%     1004.8 1006      
May 17 17:56 SSW 11 14.48 Clear CLR 18 15     81%     1005.4 1006.5      
May 17 16:56 SW 8 11.27 Cloudy BKN055 OVC100 17 16     93%     1005.8 1006.9 0 0  
May 17 16:26 SSW 9 4.83 Light Rain and Fog/Mist FEW044 OVC060 16 14     93%     1006.1   0    
May 17 15:56 S 9 2.41 Rain and Fog/Mist OVC049 15 14     93%     1006.1 1007.5 0    
May 17 15:34 Calm 2.41 Light Drizzle and Fog/Mist FEW006 OVC050 14 13     90%     1006.4   0    
May 17 14:56 Calm 4.83 Fog/Mist FEW006 BKN048 OVC075 14 12     87%     1006.4 1007.9 0    
May 17 13:56 SSW 11 4.83 Light Rain and Fog/Mist FEW006 BKN040 OVC100 15 13     87%     1007.5 1008.7 0   0
May 17 13:54 SSW 13 4.83 Fog/Mist FEW006 BKN040 OVC100 15 13     88%     1007.5   0    
May 17 12:56 SW 8 3.22 Light Rain and Fog/Mist FEW009 OVC065 13 12     96%     1007.8 1008.9 0    
May 17 11:56 S 8 3.22 Light Rain and Fog/Mist SCT006 OVC070 13 11     89%     1008.1 1009.3 0    
May 17 11:31 SSE 8 4.02 Fog/Mist OVC065 13        %     1007.8   0    
May 17 10:56 SSE 8 4.83 Light Rain OVC090 13        %     1008.5 1009.7 0 0  
May 17 10:10 ESE 8 4.83 Light Rain OVC070 12        %     1008.8   0    
May 17 10:03 ESE 8 4.02 Light Rain and Fog/Mist SCT065 OVC090 12 12     100%     1009.2   0    
May 17 09:56 ESE 8 4.83 Light Rain and Fog/Mist BKN065 OVC085 12 12     100%     1009.2 1010.4 0    
May 17 09:51 ESE 5 4.83 Light Rain and Fog/Mist BKN070 OVC080 12 11     94%     1009.2   0    
May 17 09:42 Calm 4.02 Light Rain and Fog/Mist OVC070 12 11     93%     1009.5   0    
May 17 08:56 ESE 8 9.66 Light Rain and Fog/Mist OVC080 12 9     86%     1008.8 1010.2 0    
May 17 07:56 ENE 5 12.87 Light Rain OVC090 11 9     89%     1009.8 1011 0   0
May 17 06:56 Calm 11.27 Cloudy OVC090 9 8     90%     1009.8 1011.2 0    
May 17 05:56 Calm 16.09 Cloudy OVC075 8 7     93%     1009.5 1010.7      
May 17 04:56 Calm 16.09 Cloudy OVC100 8 6     86%     1008.8 1010      
May 17 03:56 Calm 16.09 Clear CLR 6 4     92%     1009.5 1010.7      
May 17 03:49 Calm 3.22 Fog/Mist CLR 6 4     89%     1009.5        
May 17 03:45 Calm 1.21 Fog/Mist CLR 6 4     89%     1009.5        
May 17 03:36 Calm 2.82 Fog/Mist CLR 6 4     92%     1009.5        
May 17 03:26 Calm 11.27 Clear CLR 6 4     89%     1009.8        
May 17 03:09 Calm 2.82 Fog/Mist CLR 6 5     93%     1009.8        
May 17 02:56 Calm 12.87 Clear CLR 7 5     89%     1010.2 1011.3      
May 17 01:56 Calm 16.09 Clear CLR 7 5     86%     1010.5 1011.7      
May 17 00:56 Calm 16.09 Clear CLR 8 6     86%     1011.2 1012.3      
May 16 23:56 Calm 16.09 Clear CLR 8 6     86%     1011.2 1012.5      
May 16 22:56 Calm 16.09 Clear CLR 9 6     83%     1011.5 1012.6      
May 16 21:56 Calm 16.09 Clear   11 7     74%     1011.2 1012.5      
May 14 11:56 11 16.09 Cloudy OVC027 17 11     67%     1014.9 1016.1      
May 14 05:56 Calm 16.09 Clear   10 8     89%     1015.9 1017.2      
May 13 01:34 NNW 8 12.87 Mostly Cloudy BKN006 8 7     96% 7   1020        
May 12 16:56 NNW 8 4.83 Light Rain and Fog/Mist OVC005 9 8     96% 8   1019.7 1021.1 0 0  
Jun 11 22:56 SW 9 16.09 Clear CLR 26 16     56%   26 1012.9 1013.8      
Jun 11 12:56 WSW 13 16.09 Clear CLR 28 14     43%   28 1013.9 1014.8      
Jun 10 08:56 SW 9 16.09 Clear CLR 23 12     50%   22 1014.2 1015.3      
Jun 09 09:56 W 11 16.09 Partly Cloudy SCT150 21 7     39%     1003.7 1004.7      
Jun 09 03:56 Calm 16.09 Clear   13 8     74%     1006.1 1007.2      
Jun 08 11:56 8 16.09 Clear CLR 25 8     35%   24 1015.9 1016.9      
Jun 07 16:56 ESE 13 16.09 Mostly Clear FEW040 21 7     39%     1013.9 1015.1      
Jun 07 11:56 NE 15 16.09 Clear CLR 19 10     56%     1014.2 1015.6      
Jun 06 08:48 NE 18 3.22 Fog/Mist OVC004 9 8     93% 7   1009.8   0    
Notice The following observation data may not be complete
Jun 06 08:03   2.82 Fog/Mist BKN010 OVC014          %         0    
Jun 06 05:56 NE 26 2.41 Fog/Mist OVC009 9 8     90% 6   1009.2 1010.5 0    
Notice The following observation data may not be complete
Jun 06 03:56   9.66 Light Rain and Fog/Mist OVC010          %         0    
Jun 05 14:56 ENE 17 2.01 Fog/Mist VV004 13 12     90%     1010.8 1011.9